Find Starlink 30996

NORAD ID: 59023 Int'l Des: 2024-038 Owner: SPXS Country: US Constellation: starlink operational
LEOCIRCULAR

現在のビュー

3D地球を読み込み中...

About Starlink 30996

Starlink 30996 (NORAD 59023) is a starlink constellation satellite (v2 mini) launched Feb 25, 2024 by SPXS of US. It operates in LEO, CIRCULAR orbit with a mass of 730.00 kg.

次回通過

Passes for default location (London). Set your location on the main map for personalized predictions.

高度履歴

Loading altitude history...

軌道要素

1 59023U 24038A 26265.27965289 .00000188 00000-0 16345-4 0 9995
2 59023 43.0024 356.8218 0001036 271.1284 88.9449 15.27574391146199
Epoch: Sep 22, 2026 • Age: 10 hours

現在のステータス

高度 486.4 km
遠地点 / 近地点 N/A
速度 7.63 km/s
衛星直下点 41.03°N, 174.38°E
打ち上げ日 Feb 25, 2024
運用期間 2.5 years
タイプ internet

技術仕様

分類 Payload
質量 730.00 kg
乾燥質量 700.00 kg
長さ 0.30 m
スパン 29.00 m
形状 ? Box + pan
製造者 SPXS
バスタイプ Starlink V2M
フェーズステータス In Orbit
所有者/国 SPXS/US

Most Searched